Regional Weather Roundup
Issued by NWS Sioux Falls, SD

Home | Current Version | Previous Version | Text Only | Print | Product List | Glossary Off
Versions: 1 2 3 4 5 6 7 8 9 10 11 12 13 14 15 16 17 18 19 20 21 22 23 24 25 26 27 28 29 30 31 32 33 34 35 36 37 38 39 40 41 42 43 44 45 46 47 48 49 50

000
ASUS43 KFSD 201110
RWRFSD

WEATHER ROUNDUP FOR SE SOUTH DAKOTA/SW MINNESOTA/NW IOWA
NATIONAL WEATHER SERVICE SIOUX FALLS SD
600 AM CDT WED SEP 20 2017

NOTE: "FAIR" INDICATES FEW OR NO CLOUDS BELOW 12,000 FEET WITH NO
SIGNIFICANT WEATHER AND OR OBSTRUCTIONS TO VISIBILITY.


SDZ038>040-050-052>070-201200-
SOUTHEAST SOUTH DAKOTA

CITY           SKY/WX    TMP DP  RH WIND       PRES   REMARKS
BROOKINGS      MOCLDY    55  52  89 W16       29.73R
CHAMBERLAIN    CLOUDY    52  52  99 SW3       29.81S
HURON          MOCLDY    53  49  86 W9        29.76R
MADISON        FAIR      54  54 100 W12       29.74R
MITCHELL       PTCLDY    53  50  89 W9        29.76R
SIOUX FALLS    PTCLDY    57  54  89 NW9       29.73R
WINNER         FAIR      51  46  83 W7        29.82R
YANKTON        CLEAR     57  53  86 W14       29.76R
$$

MNZ071-072-080-081-089-090-097-098-201200-
SOUTHWEST MINNESOTA

CITY           SKY/WX    TMP DP  RH WIND       PRES   REMARKS
FAIRMONT       PTCLDY    61  59  93 CALM      29.67R
JACKSON        CLOUDY    59  57  94 CALM      29.66F
LUVERNE        CLEAR     55  52  88 W9        29.72R
MARSHALL       CLEAR     60  55  83 W15       29.67R
MONTEVIDEO     CLEAR     57  57 100 NW8       29.66R
PIPESTONE      CLEAR     57  54  88 W8        29.72R
REDWOOD FALLS  CLEAR     62  58  86 W13       29.64R
TRACY          CLEAR     60  56  86 W9        29.69R
WINDOM         CLOUDY    61  57  88 SW3       29.66R
WORTHINGTON    CLEAR     58  54  86 W10       29.70R
$$

IAZ001>003-012>014-020>022-031-032-NEZ013-014-SDZ071-201200-
NORTHWEST IOWA

CITY           SKY/WX    TMP DP  RH WIND       PRES   REMARKS
CHEROKEE       CLEAR     58  58 100 SW3       29.69R
DENISON        CLOUDY    66  61  82 N6        29.71R
ESTHERVILLE    PTCLDY    58  58 100 S3        29.66R
LE MARS        MOCLDY    61  57  88 NW7       29.73R
ORANGE CITY    CLOUDY    61  61 100 W7        29.73R
SHELDON        MOCLDY    59  55  88 W10       29.70R
SIOUX CITY     MOCLDY    59  57  93 NW7       29.73R
SPENCER        PTCLDY    57  56  96 S3        29.67R
STORM LAKE     MOCLDY    61  57  88 NE3       29.69R
$$

ABBREVIATIONS USED IN REMARKS
   TC - TEMPERATURE IN CELSIUS
  WCI - WIND CHILL INDEX
   HX - HEAT INDEX
  VSB - VISIBILITY




USA.gov is the U.S. government's official web portal to all federal, state and local government web resources and services.